sat.trackr.live / text

‹ back to catalog

STARLINK-5455

NORAD 55668 · 2023-021AS

PAYLOAD ACTIVE UNKNOWN

§ Identity

Operator
Country
US
Launch date
2023-02-17
Launch site
AFWTR
Launch vehicle
Mass (kg)
RCS (m²)

Purposes: comms

External: N2YO · Heavens-Above · Gunter

§ Orbital elements

Epoch: 2026-09-20T13:35:05.217504Z

Period
96.11 min
Inclination
70.0008°
Eccentricity
0.0003040
Mean motion
14.98329493 rev/d
Perigee alt
569.9 km
Apogee alt
574.2 km
Semi-major
6,950.2 km
B*
-5.6843e-6
RAAN
33.1637°
Arg perigee
269.2070°
Mean anomaly
90.8740°
Rev number
19,846

§ Raw data

STARLINK-54551 55668U 23021AS  26263.56603261 -.00000161  00000+0 -56843-5 0  99962 55668  70.0008  33.1637 0003040 269.2070  90.8740 14.98329493198461

JSON: /api/v1/satellites/55668 · /tle

For live sub-satellite position, see the globe view (requires WebGL).

§ Visibility from observer

Set your observer location to see the next 7 days of passes ≥ 10°. The values pass through the URL so the page stays shareable.

No JS? Fill the form by hand. The geolocation button needs JavaScript.